Location: Limerick
(52.6800°N, 8.6400°W)
Time: 02:19:05
(UTC+01:00)

ISS - All Passes

Search period start: 30 June 2016 00:00
Search period end: 10 July 2016 00:00
Orbit: 402 x 403 km, 51.6° (Epoch: 29 June)

Date Brightness Start Highest point End Pass type
(mag) Time Alt. Az. Time Alt. Az. Time Alt. Az.
30 Jun - 10:25:22 10° SW 10:28:24 36° SSE 10:31:26 10° E daylight
30 Jun - 12:01:22 10° W 12:04:38 74° S 12:07:54 10° E daylight
30 Jun - 13:37:46 10° W 13:40:59 55° SSW 13:44:11 10° ESE daylight
30 Jun - 15:14:36 10° W 15:16:58 19° SW 15:19:20 10° SSE daylight
01 Jul - 09:33:00 10° SSW 09:35:46 26° SSE 09:38:33 10° E daylight
01 Jul - 11:08:38 10° WSW 11:11:54 66° SSE 11:15:09 10° E daylight
01 Jul - 12:45:00 10° W 12:48:15 67° S 12:51:31 10° ESE daylight
01 Jul - 14:21:34 10° W 14:24:24 27° SSW 14:27:13 10° SSE daylight
02 Jul - 08:40:55 10° S 08:43:11 18° SE 08:45:27 10° E daylight
02 Jul - 10:15:57 10° WSW 10:19:09 53° SSE 10:22:22 10° E daylight
02 Jul - 11:52:13 10° W 11:55:30 74° S 11:58:45 10° E daylight
02 Jul - 13:28:40 10° W 13:31:45 38° SSW 13:34:49 10° SE daylight
02 Jul - 15:06:44 10° SW 15:07:30 11° SW 15:08:17 10° SSW daylight
03 Jul - 07:49:31 10° SSE 07:50:39 11° SE 07:51:48 10° ESE daylight
03 Jul - 09:23:22 10° SW 09:26:27 40° SSE 09:29:33 10° E daylight
03 Jul - 10:59:27 10° W 11:02:43 75° S 11:05:59 10° E daylight
03 Jul - 12:35:51 10° W 12:39:03 51° SSW 12:42:14 10° ESE daylight
03 Jul - 14:12:50 10° WSW 14:15:00 17° SW 14:17:09 10° S daylight
04 Jul - 08:30:55 10° SSW 08:33:47 28° SSE 08:36:40 10° E daylight
04 Jul - 10:06:41 10° WSW 10:09:58 69° S 10:13:13 10° E daylight
04 Jul - 11:43:03 10° W 11:46:19 64° S 11:49:34 10° ESE daylight
04 Jul - 13:19:41 10° W 13:22:25 24° SSW 13:25:07 10° SSE daylight
05 Jul - 07:38:43 10° SSW 07:41:11 20° SE 07:43:38 10° E daylight
05 Jul - 09:13:58 10° WSW 09:17:11 57° SSE 09:20:25 10° E daylight
05 Jul - 10:50:16 10° W 10:53:32 73° S 10:56:48 10° E daylight
05 Jul - 12:26:44 10° W 12:29:45 34° SSW 12:32:46 10° SE daylight
06 Jul - 06:47:00 10° S 06:48:36 13° SE 06:50:13 10° ESE daylight
06 Jul - 08:21:20 10° SW 08:24:27 43° SSE 08:27:35 10° E daylight
06 Jul - 09:57:28 10° W 10:00:45 76° S 10:04:01 10° E daylight
06 Jul - 11:33:53 10° W 11:37:03 47° SSW 11:40:13 10° SE daylight
06 Jul - 13:11:02 10° WSW 13:12:57 15° SW 13:14:51 10° S daylight
07 Jul - 07:28:48 10° SW 07:31:45 31° SSE 07:34:42 10° E daylight
07 Jul - 09:04:41 10° WSW 09:07:57 71° S 09:11:12 10° E daylight
07 Jul - 10:41:04 10° W 10:44:18 60° SSW 10:47:32 10° ESE daylight
07 Jul - 12:17:46 10° W 12:20:21 22° SSW 12:22:57 10° SSE daylight
08 Jul - 06:36:30 10° SSW 06:39:06 22° SSE 06:41:43 10° E daylight
08 Jul - 08:11:55 10° WSW 08:15:10 61° SSE 08:18:24 10° E daylight
08 Jul - 09:48:14 10° W 09:51:31 71° S 09:54:47 10° ESE daylight
08 Jul - 11:24:45 10° W 11:27:42 31° SSW 11:30:39 10° SE daylight
09 Jul - 05:44:34 10° S 05:46:30 15° SE 05:48:26 10° ESE daylight
09 Jul - 07:19:14 10° SW 07:22:24 47° SSE 07:25:34 10° E daylight
09 Jul - 08:55:26 10° W 08:58:42 76° S 09:01:59 10° E daylight
09 Jul - 10:31:52 10° W 10:34:59 43° SSW 10:38:07 10° SE daylight
09 Jul - 12:09:15 10° WSW 12:10:49 13° SW 12:12:24 10° S daylight
